Time,TemperatureF,DewpointF,PressureIn,WindDirection,WindDirectionDegrees,WindSpeedMPH,WindSpeedGustMPH,Humidity,HourlyPrecipIn,Conditions,Clouds,dailyrainin,SoftwareType,DateUTC
2013-03-22 00:00:00,27.3,15.7,29.96,SW,219,0.0,0.0,61,0.00,,FEW075,0.00,VWS V14.01,2013-03-22 07:00:00,
2013-03-22 00:01:00,27.5,15.4,29.96,SW,219,0.0,0.0,60,0.00,,BKN060,0.00,VWS V14.01,2013-03-22 07:01:00,
2013-03-22 00:02:00,27.5,15.4,29.96,SW,219,0.0,0.0,60,0.00,,BKN060,0.00,VWS V14.01,2013-03-22 07:02:00,
2013-03-22 00:03:00,27.5,15.4,29.96,SW,219,0.0,0.0,60,0.00,,BKN060,0.00,VWS V14.01,2013-03-22 07:03:00,
2013-03-22 00:04:00,27.3,15.3,29.96,SW,219,0.0,0.0,60,0.00,,BKN060,0.00,VWS V14.01,2013-03-22 07:04:00,
2013-03-22 00:05:00,27.5,16.2,29.96,SW,219,0.0,0.0,62,0.00,,FEW075,0.00,VWS V14.01,2013-03-22 07:05:00,
2013-03-22 00:06:00,27.3,15.3,29.96,SW,219,0.0,0.0,60,0.00,,BKN060,0.00,VWS V14.01,2013-03-22 07:06:00,
2013-03-22 00:07:00,27.3,15.7,29.96,SW,219,0.0,0.0,61,0.00,,BKN060,0.00,VWS V14.01,2013-03-22 07:07:00,
2013-03-22 00:08:00,27.3,15.7,29.96,SW,219,0.0,0.0,61,0.00,,BKN060,0.00,VWS V14.01,2013-03-22 07:08:00,
2013-03-22 00:09:00,27.3,15.7,29.96,SW,219,0.0,0.0,61,0.00,,BKN060,0.00,VWS V14.01,2013-03-22 07:09:00,
2013-03-22 00:10:00,27.5,16.2,29.99,SW,219,0.0,0.0,62,0.00,,FEW075,0.00,VWS V14.01,2013-03-22 07:10:00,
2013-03-22 00:11:00,27.5,16.2,29.96,SW,219,0.0,0.0,62,0.00,,BKN060,0.00,VWS V14.01,2013-03-22 07:11:00,
2013-03-22 00:12:00,27.5,16.2,29.96,SW,219,0.0,0.0,62,0.00,,BKN060,0.00,VWS V14.01,2013-03-22 07:12:00,
2013-03-22 00:13:00,27.5,16.2,29.96,SW,219,0.0,0.0,62,0.00,,BKN060,0.00,VWS V14.01,2013-03-22 07:13:00,
2013-03-22 00:14:00,27.5,16.2,29.96,SW,219,0.0,0.0,62,0.00,,BKN060,0.00,VWS V14.01,2013-03-22 07:14:00,
2013-03-22 00:15:00,27.3,16.0,29.99,SW,219,0.0,0.0,62,0.00,,FEW075,0.00,VWS V14.01,2013-03-22 07:15:00,
2013-03-22 00:16:00,27.5,16.2,29.96,SW,219,0.0,0.0,62,0.00,,BKN060,0.00,VWS V14.01,2013-03-22 07:16:00,
2013-03-22 00:17:00,27.5,16.2,29.99,SW,219,0.0,0.0,62,0.00,,BKN060,0.00,VWS V14.01,2013-03-22 07:17:00,
2013-03-22 00:18:00,27.5,16.2,29.99,SW,219,0.0,0.0,62,0.00,,BKN060,0.00,VWS V14.01,2013-03-22 07:18:00,
2013-03-22 00:19:00,27.5,16.2,29.99,SW,219,0.0,0.0,62,0.00,,BKN060,0.00,VWS V14.01,2013-03-22 07:19:00,
2013-03-22 00:20:00,27.3,16.0,29.99,SW,219,0.0,0.0,62,0.00,,FEW075,0.00,VWS V14.01,2013-03-22 07:20:00,
2013-03-22 00:21:00,27.5,16.2,29.99,SW,219,0.0,0.0,62,0.00,,BKN060,0.00,VWS V14.01,2013-03-22 07:21:00,
2013-03-22 00:22:00,27.5,16.2,29.99,SW,219,0.0,0.0,62,0.00,,BKN060,0.00,VWS V14.01,2013-03-22 07:22:00,
2013-03-22 00:23:00,27.5,16.2,29.99,SW,219,0.0,0.0,62,0.00,,BKN060,0.00,VWS V14.01,2013-03-22 07:23:00,
2013-03-22 00:24:00,27.5,16.2,29.99,SW,219,0.0,0.0,62,0.00,,BKN060,0.00,VWS V14.01,2013-03-22 07:24:00,
2013-03-22 00:25:00,27.0,15.7,29.96,SW,219,0.0,0.0,62,0.00,,FEW075,0.00,VWS V14.01,2013-03-22 07:25:00,
2013-03-22 00:26:00,27.3,16.0,29.99,SW,219,0.0,0.0,62,0.00,,BKN060,0.00,VWS V14.01,2013-03-22 07:26:00,
2013-03-22 00:27:00,27.3,16.0,29.99,SW,219,0.0,0.0,62,0.00,,BKN060,0.00,VWS V14.01,2013-03-22 07:27:00,
2013-03-22 00:28:00,27.3,16.0,29.99,SW,219,0.0,0.0,62,0.00,,BKN060,0.00,VWS V14.01,2013-03-22 07:28:00,
2013-03-22 00:29:00,27.3,16.0,29.99,SW,219,0.0,0.0,62,0.00,,BKN060,0.00,VWS V14.01,2013-03-22 07:29:00,
2013-03-22 00:30:00,26.8,15.5,29.96,SW,219,0.0,0.0,62,0.00,,FEW075,0.00,VWS V14.01,2013-03-22 07:30:00,
2013-03-22 00:31:00,27.3,16.0,29.99,SW,219,0.0,0.0,62,0.00,,BKN060,0.00,VWS V14.01,2013-03-22 07:31:00,
2013-03-22 00:32:00,27.3,16.0,29.96,SW,219,0.0,0.0,62,0.00,,BKN060,0.00,VWS V14.01,2013-03-22 07:32:00,
2013-03-22 00:33:00,27.3,16.0,29.96,SW,219,0.0,0.0,62,0.00,,BKN060,0.00,VWS V14.01,2013-03-22 07:33:00,
2013-03-22 00:34:00,27.1,15.9,29.96,SW,219,0.0,2.2,62,0.00,,BKN060,0.00,VWS V14.01,2013-03-22 07:34:00,
2013-03-22 00:35:00,26.6,15.4,29.96,SW,219,0.0,0.0,62,0.00,,FEW075,0.00,VWS V14.01,2013-03-22 07:35:00,
2013-03-22 00:36:00,27.0,15.7,29.96,SW,219,0.0,0.0,62,0.00,,BKN060,0.00,VWS V14.01,2013-03-22 07:36:00,
2013-03-22 00:37:00,27.0,15.7,29.96,SW,219,0.0,0.0,62,0.00,,BKN060,0.00,VWS V14.01,2013-03-22 07:37:00,
2013-03-22 00:38:00,27.0,15.7,29.96,SW,219,0.0,0.0,62,0.00,,BKN060,0.00,VWS V14.01,2013-03-22 07:38:00,
2013-03-22 00:39:00,27.0,15.7,29.96,SW,219,0.0,0.0,62,0.00,,BKN060,0.00,VWS V14.01,2013-03-22 07:39:00,
2013-03-22 00:40:00,26.2,15.0,29.96,SW,219,0.0,0.0,62,0.00,,FEW075,0.00,VWS V14.01,2013-03-22 07:40:00,
2013-03-22 00:41:00,26.8,15.5,29.96,SW,219,0.0,0.0,62,0.00,,BKN060,0.00,VWS V14.01,2013-03-22 07:41:00,
2013-03-22 00:42:00,26.8,15.5,29.96,SW,219,0.0,0.0,62,0.00,,BKN060,0.00,VWS V14.01,2013-03-22 07:42:00,
2013-03-22 00:43:00,26.8,15.5,29.96,SW,219,0.0,0.0,62,0.00,,BKN060,0.00,VWS V14.01,2013-03-22 07:43:00,
2013-03-22 00:44:00,26.6,15.4,29.96,SW,219,0.0,0.0,62,0.00,,BKN060,0.00,VWS V14.01,2013-03-22 07:44:00,
2013-03-22 00:45:00,25.9,14.7,29.96,SW,219,0.0,0.0,62,0.00,,FEW075,0.00,VWS V14.01,2013-03-22 07:45:00,
2013-03-22 00:46:00,26.6,15.4,29.96,SW,219,0.0,0.0,62,0.00,,BKN060,0.00,VWS V14.01,2013-03-22 07:46:00,
2013-03-22 00:47:00,26.4,15.2,29.96,SW,219,0.0,0.0,62,0.00,,BKN060,0.00,VWS V14.01,2013-03-22 07:47:00,
2013-03-22 00:48:00,26.4,15.2,29.96,SW,219,0.0,0.0,62,0.00,,BKN060,0.00,VWS V14.01,2013-03-22 07:48:00,
2013-03-22 00:49:00,26.2,15.0,29.96,SW,219,0.0,0.0,62,0.00,,BKN060,0.00,VWS V14.01,2013-03-22 07:49:00,
2013-03-22 00:50:00,25.9,14.7,29.96,SW,219,0.0,0.0,62,0.00,,FEW075,0.00,VWS V14.01,2013-03-22 07:50:00,
2013-03-22 00:51:00,26.1,14.8,29.96,SW,219,0.0,0.0,62,0.00,,BKN060,0.00,VWS V14.01,2013-03-22 07:51:00,
2013-03-22 00:52:00,26.1,14.8,29.96,SW,219,0.0,0.0,62,0.00,,BKN060,0.00,VWS V14.01,2013-03-22 07:52:00,
2013-03-22 00:53:00,26.1,14.8,29.96,SW,219,0.0,0.0,62,0.00,,BKN060,0.00,VWS V14.01,2013-03-22 07:53:00,
2013-03-22 00:54:00,26.1,14.8,29.96,SW,219,0.0,0.0,62,0.00,,BKN060,0.00,VWS V14.01,2013-03-22 07:54:00,
2013-03-22 00:55:00,25.3,14.2,29.96,SW,219,0.0,0.0,62,0.00,,FEW075,0.00,VWS V14.01,2013-03-22 07:55:00,
2013-03-22 00:56:00,25.9,14.7,29.96,SW,219,0.0,0.0,62,0.00,,BKN060,0.00,VWS V14.01,2013-03-22 07:56:00,
2013-03-22 00:57:00,25.9,14.7,29.96,SW,219,0.0,0.0,62,0.00,,BKN060,0.00,VWS V14.01,2013-03-22 07:57:00,
2013-03-22 00:58:00,25.9,14.7,29.96,SW,219,0.0,0.0,62,0.00,,BKN060,0.00,VWS V14.01,2013-03-22 07:58:00,
2013-03-22 00:59:00,25.9,14.7,29.96,SW,219,0.0,0.0,62,0.00,,BKN060,0.00,VWS V14.01,2013-03-22 07:59:00,
2013-03-22 01:00:00,25.3,14.2,29.96,SW,219,0.0,0.0,62,0.00,,OVC110,0.00,VWS V14.01,2013-03-22 08:00:00,
2013-03-22 01:01:00,25.7,14.5,29.96,SW,219,0.0,0.0,62,0.00,,BKN060,0.00,VWS V14.01,2013-03-22 08:01:00,
2013-03-22 01:02:00,25.7,14.5,29.96,SW,219,0.0,0.0,62,0.00,,BKN060,0.00,VWS V14.01,2013-03-22 08:02:00,
2013-03-22 01:03:00,25.5,14.3,29.96,SW,219,0.0,0.0,62,0.00,,BKN060,0.00,VWS V14.01,2013-03-22 08:03:00,
2013-03-22 01:04:00,25.5,14.3,29.96,SW,219,0.0,0.0,62,0.00,,BKN060,0.00,VWS V14.01,2013-03-22 08:04:00,
2013-03-22 01:05:00,25.0,13.8,29.96,SW,219,0.0,0.0,62,0.00,,OVC110,0.00,VWS V14.01,2013-03-22 08:05:00,
2013-03-22 01:06:00,25.3,14.2,29.96,SW,219,0.0,0.0,62,0.00,,BKN060,0.00,VWS V14.01,2013-03-22 08:06:00,
2013-03-22 01:07:00,25.3,14.2,29.96,SW,219,0.0,0.0,62,0.00,,BKN060,0.00,VWS V14.01,2013-03-22 08:07:00,
2013-03-22 01:08:00,25.3,14.5,29.96,SW,219,0.0,0.0,63,0.00,,BKN060,0.00,VWS V14.01,2013-03-22 08:08:00,
2013-03-22 01:09:00,25.3,14.5,29.96,SW,219,0.0,0.0,63,0.00,,BKN060,0.00,VWS V14.01,2013-03-22 08:09:00,
2013-03-22 01:10:00,25.3,14.9,29.96,SW,219,0.0,0.0,64,0.00,,OVC110,0.00,VWS V14.01,2013-03-22 08:10:00,
2013-03-22 01:11:00,25.3,14.2,29.96,SW,219,0.0,0.0,62,0.00,,BKN060,0.00,VWS V14.01,2013-03-22 08:11:00,
2013-03-22 01:12:00,25.2,14.0,29.96,SW,219,0.0,0.0,62,0.00,,BKN060,0.00,VWS V14.01,2013-03-22 08:12:00,
2013-03-22 01:13:00,25.0,13.8,29.96,SW,219,0.0,0.0,62,0.00,,BKN060,0.00,VWS V14.01,2013-03-22 08:13:00,
2013-03-22 01:14:00,25.0,13.8,29.96,SW,219,0.0,0.0,62,0.00,,BKN060,0.00,VWS V14.01,2013-03-22 08:14:00,
2013-03-22 01:15:00,25.9,15.4,29.96,SW,219,0.0,0.0,64,0.00,,OVC110,0.00,VWS V14.01,2013-03-22 08:15:00,
2013-03-22 01:16:00,25.0,13.8,29.96,SW,219,0.0,0.0,62,0.00,,BKN060,0.00,VWS V14.01,2013-03-22 08:16:00,
2013-03-22 01:17:00,25.0,13.8,29.96,SW,219,0.0,0.0,62,0.00,,BKN060,0.00,VWS V14.01,2013-03-22 08:17:00,
2013-03-22 01:18:00,25.0,14.2,29.96,SW,219,0.0,0.0,63,0.00,,BKN060,0.00,VWS V14.01,2013-03-22 08:18:00,
2013-03-22 01:19:00,25.2,14.4,29.96,SW,219,0.0,0.0,63,0.00,,BKN060,0.00,VWS V14.01,2013-03-22 08:19:00,
2013-03-22 01:20:00,25.9,15.4,29.96,SW,219,0.0,0.0,64,0.00,,OVC110,0.00,VWS V14.01,2013-03-22 08:20:00,
2013-03-22 01:21:00,25.3,14.9,29.96,SW,219,0.0,0.0,64,0.00,,BKN060,0.00,VWS V14.01,2013-03-22 08:21:00,
2013-03-22 01:22:00,25.5,15.1,29.96,SW,219,0.0,0.0,64,0.00,,BKN060,0.00,VWS V14.01,2013-03-22 08:22:00,
2013-03-22 01:23:00,25.5,15.1,29.96,SW,219,0.0,0.0,64,0.00,,BKN060,0.00,VWS V14.01,2013-03-22 08:23:00,
2013-03-22 01:24:00,25.7,15.2,29.96,SW,219,0.0,0.0,64,0.00,,BKN060,0.00,VWS V14.01,2013-03-22 08:24:00,
2013-03-22 01:25:00,25.5,14.7,29.96,SW,219,0.0,0.0,63,0.00,,OVC110,0.00,VWS V14.01,2013-03-22 08:25:00,
2013-03-22 01:26:00,25.9,15.8,29.96,SW,219,0.0,0.0,65,0.00,,BKN060,0.00,VWS V14.01,2013-03-22 08:26:00,
2013-03-22 01:27:00,25.9,15.8,29.96,SW,219,0.0,0.0,65,0.00,,BKN060,0.00,VWS V14.01,2013-03-22 08:27:00,
2013-03-22 01:28:00,25.9,15.8,29.96,SW,219,0.0,0.0,65,0.00,,BKN060,0.00,VWS V14.01,2013-03-22 08:28:00,
2013-03-22 01:29:00,25.9,15.4,29.96,SW,219,0.0,0.0,64,0.00,,BKN060,0.00,VWS V14.01,2013-03-22 08:29:00,
2013-03-22 01:30:00,25.0,14.2,29.96,SW,219,0.0,0.0,63,0.00,,OVC110,0.00,VWS V14.01,2013-03-22 08:30:00,
2013-03-22 01:31:00,25.7,15.2,29.96,SW,219,0.0,0.0,64,0.00,,BKN060,0.00,VWS V14.01,2013-03-22 08:31:00,
2013-03-22 01:32:00,25.7,15.2,29.96,SW,219,0.0,0.0,64,0.00,,BKN060,0.00,VWS V14.01,2013-03-22 08:32:00,
2013-03-22 01:33:00,25.7,15.2,29.96,SW,219,0.0,0.0,64,0.00,,BKN060,0.00,VWS V14.01,2013-03-22 08:33:00,
2013-03-22 01:34:00,25.5,14.7,29.96,SW,219,0.0,0.0,63,0.00,,BKN060,0.00,VWS V14.01,2013-03-22 08:34:00,
2013-03-22 01:35:00,24.8,14.0,29.96,SW,219,0.0,0.0,63,0.00,,OVC110,0.00,VWS V14.01,2013-03-22 08:35:00,
2013-03-22 01:36:00,25.3,14.5,29.96,SW,219,0.0,0.0,63,0.00,,BKN060,0.00,VWS V14.01,2013-03-22 08:36:00,
2013-03-22 01:37:00,25.3,14.5,29.96,SW,219,0.0,0.0,63,0.00,,BKN060,0.00,VWS V14.01,2013-03-22 08:37:00,
2013-03-22 01:38:00,25.2,14.4,29.96,SW,219,0.0,0.0,63,0.00,,BKN060,0.00,VWS V14.01,2013-03-22 08:38:00,
2013-03-22 01:39:00,25.2,14.4,29.96,SW,219,0.0,0.0,63,0.00,,BKN060,0.00,VWS V14.01,2013-03-22 08:39:00,
2013-03-22 01:40:00,24.8,14.4,29.96,SW,219,0.0,0.0,64,0.00,,OVC110,0.00,VWS V14.01,2013-03-22 08:40:00,
2013-03-22 01:41:00,25.0,14.2,29.96,SW,219,0.0,0.0,63,0.00,,BKN060,0.00,VWS V14.01,2013-03-22 08:41:00,
2013-03-22 01:42:00,24.8,14.0,29.96,SW,219,0.0,0.0,63,0.00,,BKN060,0.00,VWS V14.01,2013-03-22 08:42:00,
2013-03-22 01:43:00,24.8,14.0,29.96,SW,219,0.0,0.0,63,0.00,,BKN060,0.00,VWS V14.01,2013-03-22 08:43:00,
2013-03-22 01:44:00,24.8,14.0,29.96,SW,219,0.0,0.0,63,0.00,,BKN060,0.00,VWS V14.01,2013-03-22 08:44:00,
2013-03-22 01:45:00,25.0,14.9,29.96,SW,219,0.0,0.0,65,0.00,,OVC110,0.00,VWS V14.01,2013-03-22 08:45:00,
2013-03-22 01:46:00,24.8,14.4,29.96,SW,219,0.0,0.0,64,0.00,,BKN060,0.00,VWS V14.01,2013-03-22 08:46:00,
2013-03-22 01:47:00,24.8,14.4,29.96,SW,219,0.0,0.0,64,0.00,,BKN060,0.00,VWS V14.01,2013-03-22 08:47:00,
2013-03-22 01:48:00,24.8,14.4,29.96,SW,219,0.0,0.0,64,0.00,,BKN060,0.00,VWS V14.01,2013-03-22 08:48:00,
2013-03-22 01:49:00,24.8,14.4,29.96,SW,219,0.0,0.0,64,0.00,,BKN060,0.00,VWS V14.01,2013-03-22 08:49:00,
2013-03-22 01:50:00,24.8,14.7,29.96,SW,219,0.0,0.0,65,0.00,,OVC110,0.00,VWS V14.01,2013-03-22 08:50:00,
2013-03-22 01:51:00,25.0,14.5,29.96,SW,219,0.0,0.0,64,0.00,,BKN060,0.00,VWS V14.01,2013-03-22 08:51:00,
2013-03-22 01:52:00,25.0,14.9,29.96,SW,219,0.0,0.0,65,0.00,,BKN060,0.00,VWS V14.01,2013-03-22 08:52:00,
2013-03-22 01:53:00,25.2,15.1,29.96,SW,219,0.0,0.0,65,0.00,,BKN060,0.00,VWS V14.01,2013-03-22 08:53:00,
2013-03-22 01:54:00,25.0,14.9,29.96,SW,219,0.0,0.0,65,0.00,,BKN060,0.00,VWS V14.01,2013-03-22 08:54:00,
2013-03-22 01:55:00,25.3,15.6,29.96,SW,219,0.0,0.0,66,0.00,,OVC110,0.00,VWS V14.01,2013-03-22 08:55:00,
2013-03-22 01:56:00,25.0,14.9,29.96,SW,219,0.0,0.0,65,0.00,,BKN060,0.00,VWS V14.01,2013-03-22 08:56:00,
2013-03-22 01:57:00,24.8,14.7,29.96,SW,219,0.0,0.0,65,0.00,,BKN060,0.00,VWS V14.01,2013-03-22 08:57:00,
2013-03-22 01:58:00,24.8,14.7,29.96,SW,219,0.0,0.0,65,0.00,,BKN060,0.00,VWS V14.01,2013-03-22 08:58:00,
2013-03-22 01:59:00,25.0,14.9,29.96,SW,219,0.0,0.0,65,0.00,,BKN060,0.00,VWS V14.01,2013-03-22 08:59:00,
2013-03-22 02:00:00,25.9,16.5,29.96,SW,219,0.0,0.0,67,0.00,,SCT100,0.00,VWS V14.01,2013-03-22 09:00:00,
2013-03-22 02:01:00,25.0,14.9,29.96,SW,219,0.0,0.0,65,0.00,,BKN060,0.00,VWS V14.01,2013-03-22 09:01:00,
2013-03-22 02:02:00,25.0,14.9,29.96,SW,219,0.0,0.0,65,0.00,,BKN060,0.00,VWS V14.01,2013-03-22 09:02:00,
2013-03-22 02:03:00,25.0,14.9,29.96,SW,219,0.0,0.0,65,0.00,,BKN060,0.00,VWS V14.01,2013-03-22 09:03:00,
2013-03-22 02:04:00,25.2,15.4,29.96,SW,219,0.0,0.0,66,0.00,,BKN060,0.00,VWS V14.01,2013-03-22 09:04:00,
2013-03-22 02:05:00,26.2,16.8,29.96,SW,219,0.0,0.0,67,0.00,,SCT100,0.00,VWS V14.01,2013-03-22 09:05:00,
2013-03-22 02:06:00,25.3,15.6,29.96,SW,219,0.0,0.0,66,0.00,,BKN060,0.00,VWS V14.01,2013-03-22 09:06:00,
2013-03-22 02:07:00,25.5,15.8,29.96,SW,219,0.0,0.0,66,0.00,,BKN060,0.00,VWS V14.01,2013-03-22 09:07:00,
2013-03-22 02:08:00,25.5,15.8,29.96,SW,219,0.0,0.0,66,0.00,,BKN060,0.00,VWS V14.01,2013-03-22 09:08:00,
2013-03-22 02:09:00,25.5,15.8,29.96,SW,219,0.0,0.0,66,0.00,,BKN060,0.00,VWS V14.01,2013-03-22 09:09:00,
2013-03-22 02:10:00,26.4,17.0,29.96,SW,219,0.0,0.0,67,0.00,,SCT100,0.00,VWS V14.01,2013-03-22 09:10:00,
2013-03-22 02:11:00,25.9,16.5,29.96,SW,219,0.0,0.0,67,0.00,,BKN060,0.00,VWS V14.01,2013-03-22 09:11:00,
2013-03-22 02:12:00,26.1,16.6,29.96,SW,219,0.0,0.0,67,0.00,,BKN060,0.00,VWS V14.01,2013-03-22 09:12:00,
2013-03-22 02:13:00,26.1,16.6,29.96,SW,219,0.0,0.0,67,0.00,,BKN060,0.00,VWS V14.01,2013-03-22 09:13:00,
2013-03-22 02:14:00,26.1,16.6,29.96,SW,219,0.0,0.0,67,0.00,,BKN060,0.00,VWS V14.01,2013-03-22 09:14:00,
2013-03-22 02:15:00,27.0,17.5,29.96,SW,219,0.0,0.0,67,0.00,,SCT100,0.00,VWS V14.01,2013-03-22 09:15:00,
2013-03-22 02:16:00,26.2,16.8,29.96,SW,219,0.0,0.0,67,0.00,,BKN060,0.00,VWS V14.01,2013-03-22 09:16:00,
2013-03-22 02:17:00,26.2,16.8,29.96,SW,219,0.0,0.0,67,0.00,,BKN060,0.00,VWS V14.01,2013-03-22 09:17:00,
2013-03-22 02:18:00,26.4,17.0,29.96,SW,219,0.0,0.0,67,0.00,,BKN060,0.00,VWS V14.01,2013-03-22 09:18:00,
2013-03-22 02:19:00,26.4,17.0,29.96,SW,219,0.0,0.0,67,0.00,,BKN060,0.00,VWS V14.01,2013-03-22 09:19:00,
2013-03-22 02:20:00,27.5,18.0,29.96,SW,219,0.0,0.0,67,0.00,,SCT100,0.00,VWS V14.01,2013-03-22 09:20:00,
2013-03-22 02:21:00,26.6,17.1,29.96,SW,219,0.0,0.0,67,0.00,,BKN060,0.00,VWS V14.01,2013-03-22 09:21:00,
2013-03-22 02:22:00,26.6,17.1,29.96,SW,219,0.0,0.0,67,0.00,,BKN060,0.00,VWS V14.01,2013-03-22 09:22:00,
2013-03-22 02:23:00,26.8,17.3,29.96,SW,219,0.0,0.0,67,0.00,,BKN060,0.00,VWS V14.01,2013-03-22 09:23:00,
2013-03-22 02:24:00,26.8,17.3,29.96,SW,219,0.0,0.0,67,0.00,,BKN060,0.00,VWS V14.01,2013-03-22 09:24:00,
2013-03-22 02:25:00,27.9,18.0,29.99,SW,219,0.0,0.0,66,0.00,,SCT100,0.00,VWS V14.01,2013-03-22 09:25:00,
2013-03-22 02:26:00,27.0,17.5,29.96,SW,219,0.0,0.0,67,0.00,,BKN060,0.00,VWS V14.01,2013-03-22 09:26:00,
2013-03-22 02:27:00,27.1,17.6,29.96,SW,219,0.0,0.0,67,0.00,,BKN060,0.00,VWS V14.01,2013-03-22 09:27:00,
2013-03-22 02:28:00,27.1,17.6,29.96,SW,219,0.0,0.0,67,0.00,,BKN060,0.00,VWS V14.01,2013-03-22 09:28:00,
2013-03-22 02:29:00,27.3,17.8,29.96,SW,219,0.0,0.0,67,0.00,,BKN060,0.00,VWS V14.01,2013-03-22 09:29:00,
2013-03-22 02:30:00,28.4,17.8,29.99,SW,219,0.0,0.0,64,0.00,,SCT100,0.00,VWS V14.01,2013-03-22 09:30:00,
2013-03-22 02:31:00,27.7,18.2,29.96,SW,219,0.0,0.0,67,0.00,,BKN060,0.00,VWS V14.01,2013-03-22 09:31:00,
2013-03-22 02:32:00,27.7,18.2,29.99,SW,219,0.0,0.0,67,0.00,,BKN060,0.00,VWS V14.01,2013-03-22 09:32:00,
2013-03-22 02:33:00,27.9,18.3,29.99,SW,219,0.0,0.0,67,0.00,,BKN060,0.00,VWS V14.01,2013-03-22 09:33:00,
2013-03-22 02:34:00,27.9,18.3,29.99,SW,219,0.0,0.0,67,0.00,,BKN060,0.00,VWS V14.01,2013-03-22 09:34:00,
2013-03-22 02:35:00,28.6,17.2,29.99,SW,219,0.0,0.0,62,0.00,,SCT100,0.00,VWS V14.01,2013-03-22 09:35:00,
2013-03-22 02:36:00,28.0,18.2,29.99,SW,219,0.0,0.0,66,0.00,,BKN060,0.00,VWS V14.01,2013-03-22 09:36:00,
2013-03-22 02:37:00,28.0,18.2,29.99,SW,219,0.0,0.0,66,0.00,,BKN060,0.00,VWS V14.01,2013-03-22 09:37:00,
2013-03-22 02:38:00,28.2,18.0,29.99,SW,219,0.0,0.0,65,0.00,,BKN060,0.00,VWS V14.01,2013-03-22 09:38:00,
2013-03-22 02:39:00,28.4,17.8,29.99,SW,219,0.0,0.0,64,0.00,,BKN060,0.00,VWS V14.01,2013-03-22 09:39:00,
2013-03-22 02:40:00,28.2,16.9,29.99,SW,219,0.0,0.0,62,0.00,,SCT100,0.00,VWS V14.01,2013-03-22 09:40:00,
2013-03-22 02:41:00,28.6,17.6,29.99,SW,219,0.0,0.0,63,0.00,,BKN060,0.00,VWS V14.01,2013-03-22 09:41:00,
2013-03-22 02:42:00,28.6,17.6,29.99,SW,219,0.0,2.2,63,0.00,,BKN060,0.00,VWS V14.01,2013-03-22 09:42:00,
2013-03-22 02:43:00,28.6,17.6,29.99,SW,219,0.0,0.0,63,0.00,,BKN060,0.00,VWS V14.01,2013-03-22 09:43:00,
2013-03-22 02:44:00,28.6,17.2,29.99,SW,219,0.0,0.0,62,0.00,,BKN060,0.00,VWS V14.01,2013-03-22 09:44:00,
2013-03-22 02:45:00,27.9,16.2,29.99,SW,219,0.0,0.0,61,0.00,,SCT100,0.00,VWS V14.01,2013-03-22 09:45:00,
2013-03-22 02:46:00,28.4,17.1,29.99,SW,219,0.0,0.0,62,0.00,,BKN060,0.00,VWS V14.01,2013-03-22 09:46:00,
2013-03-22 02:47:00,28.4,17.1,29.99,SW,219,0.0,0.0,62,0.00,,BKN060,0.00,VWS V14.01,2013-03-22 09:47:00,
2013-03-22 02:48:00,28.4,17.1,29.99,SW,219,0.0,0.0,62,0.00,,BKN060,0.00,VWS V14.01,2013-03-22 09:48:00,
2013-03-22 02:49:00,28.2,16.9,29.99,SW,219,0.0,0.0,62,0.00,,BKN060,0.00,VWS V14.01,2013-03-22 09:49:00,
2013-03-22 02:50:00,27.9,15.8,29.99,SW,227,4.9,4.9,60,0.00,,SCT100,0.00,VWS V14.01,2013-03-22 09:50:00,
2013-03-22 02:51:00,28.0,16.3,29.99,SW,219,0.0,0.0,61,0.00,,BKN060,0.00,VWS V14.01,2013-03-22 09:51:00,
2013-03-22 02:52:00,28.0,16.3,29.99,SW,219,0.0,0.0,61,0.00,,BKN060,0.00,VWS V14.01,2013-03-22 09:52:00,
2013-03-22 02:53:00,28.0,16.3,29.99,SW,219,0.0,0.0,61,0.00,,BKN060,0.00,VWS V14.01,2013-03-22 09:53:00,
2013-03-22 02:54:00,28.0,16.3,29.99,SW,219,0.0,0.0,61,0.00,,BKN060,0.00,VWS V14.01,2013-03-22 09:54:00,
2013-03-22 02:55:00,27.9,15.4,29.99,WSW,258,3.1,4.0,59,0.00,,SCT100,0.00,VWS V14.01,2013-03-22 09:55:00,
2013-03-22 02:56:00,27.9,15.8,29.99,SW,219,0.0,0.0,60,0.00,,BKN060,0.00,VWS V14.01,2013-03-22 09:56:00,
2013-03-22 02:57:00,27.9,15.8,29.99,SW,219,0.0,0.0,60,0.00,,BKN060,0.00,VWS V14.01,2013-03-22 09:57:00,
2013-03-22 02:58:00,27.9,15.8,29.99,SW,219,0.0,0.0,60,0.00,,BKN060,0.00,VWS V14.01,2013-03-22 09:58:00,
2013-03-22 02:59:00,27.9,15.8,29.99,SW,221,3.1,4.0,60,0.00,,BKN060,0.00,VWS V14.01,2013-03-22 09:59:00,
2013-03-22 03:00:00,27.9,15.4,29.99,WSW,256,4.9,4.9,59,0.00,,SCT100,0.00,VWS V14.01,2013-03-22 10:00:00,
2013-03-22 03:01:00,27.9,15.4,29.99,SW,230,2.7,4.9,59,0.00,,BKN060,0.00,VWS V14.01,2013-03-22 10:01:00,
2013-03-22 03:02:00,27.9,15.4,29.99,SW,236,3.1,3.1,59,0.00,,BKN060,0.00,VWS V14.01,2013-03-22 10:02:00,
2013-03-22 03:03:00,27.9,15.4,29.99,West,261,2.7,4.9,59,0.00,,BKN060,0.00,VWS V14.01,2013-03-22 10:03:00,
2013-03-22 03:04:00,27.9,15.4,29.99,WSW,258,3.1,5.4,59,0.00,,BKN060,0.00,VWS V14.01,2013-03-22 10:04:00,
2013-03-22 03:05:00,27.9,15.0,29.99,WSW,250,2.7,4.9,58,0.00,,BKN060,0.00,VWS V14.01,2013-03-22 10:05:00,
2013-03-22 03:06:00,27.9,15.4,29.99,WSW,254,2.7,3.6,59,0.00,,BKN060,0.00,VWS V14.01,2013-03-22 10:06:00,
2013-03-22 03:07:00,27.9,15.4,29.99,WSW,255,4.9,4.9,59,0.00,,BKN060,0.00,VWS V14.01,2013-03-22 10:07:00,
2013-03-22 03:08:00,27.9,15.4,29.99,WSW,254,3.1,4.9,59,0.00,,BKN060,0.00,VWS V14.01,2013-03-22 10:08:00,
2013-03-22 03:09:00,27.9,15.4,29.99,WSW,250,3.6,3.6,59,0.00,,BKN060,0.00,VWS V14.01,2013-03-22 10:09:00,
2013-03-22 03:10:00,27.9,15.4,29.99,WSW,256,4.9,4.9,59,0.00,,BKN060,0.00,VWS V14.01,2013-03-22 10:10:00,
2013-03-22 03:11:00,27.9,15.4,29.99,WSW,251,4.5,4.9,59,0.00,,BKN060,0.00,VWS V14.01,2013-03-22 10:11:00,
2013-03-22 03:12:00,27.9,15.4,29.99,WSW,250,3.6,4.9,59,0.00,,BKN060,0.00,VWS V14.01,2013-03-22 10:12:00,
2013-03-22 03:13:00,27.9,15.4,29.99,WSW,251,3.6,3.6,59,0.00,,BKN060,0.00,VWS V14.01,2013-03-22 10:13:00,
2013-03-22 03:14:00,27.9,15.4,29.99,WSW,250,3.1,3.6,59,0.00,,BKN060,0.00,VWS V14.01,2013-03-22 10:14:00,
2013-03-22 03:15:00,27.9,15.0,29.99,WSW,249,3.1,4.9,58,0.00,,BKN060,0.00,VWS V14.01,2013-03-22 10:15:00,
2013-03-22 03:16:00,27.9,15.0,29.99,WSW,250,2.2,3.1,58,0.00,,BKN060,0.00,VWS V14.01,2013-03-22 10:16:00,
2013-03-22 03:27:00,27.9,15.0,29.99,WSW,245,0.0,0.0,58,0.00,,BKN060,0.00,VWS V14.01,2013-03-22 10:27:00,
2013-03-22 03:32:00,28.0,15.2,29.99,WSW,245,0.0,0.0,58,0.00,,BKN060,0.00,VWS V14.01,2013-03-22 10:32:00,
2013-03-22 03:37:00,28.4,15.5,29.99,WSW,245,0.0,0.0,58,0.00,,BKN060,0.00,VWS V14.01,2013-03-22 10:37:00,
2013-03-22 03:42:00,28.6,15.3,29.99,WSW,245,0.0,0.0,57,0.00,,BKN060,0.00,VWS V14.01,2013-03-22 10:42:00,
2013-03-22 03:47:00,28.6,15.3,29.99,WSW,245,0.0,0.0,57,0.00,,BKN060,0.00,VWS V14.01,2013-03-22 10:47:00,
2013-03-22 03:52:00,28.6,15.3,29.99,WSW,245,0.0,0.0,57,0.00,,BKN060,0.00,VWS V14.01,2013-03-22 10:52:00,
2013-03-22 03:57:00,28.6,15.3,29.99,WSW,245,0.0,0.0,57,0.00,,BKN060,0.00,VWS V14.01,2013-03-22 10:57:00,
2013-03-22 04:02:00,28.6,14.9,29.99,WSW,245,0.0,0.0,56,0.00,,SCT060,0.00,VWS V14.01,2013-03-22 11:02:00,
2013-03-22 04:07:00,28.6,14.9,29.99,WSW,245,0.0,0.0,56,0.00,,SCT060,0.00,VWS V14.01,2013-03-22 11:07:00,
2013-03-22 04:12:00,28.6,14.9,29.99,WSW,245,0.0,0.0,56,0.00,,SCT060,0.00,VWS V14.01,2013-03-22 11:12:00,
2013-03-22 04:17:00,28.4,15.1,29.99,WSW,245,0.0,0.0,57,0.00,,SCT060,0.00,VWS V14.01,2013-03-22 11:17:00,
2013-03-22 04:22:00,28.2,14.6,29.99,WSW,245,0.0,0.0,56,0.00,,SCT060,0.00,VWS V14.01,2013-03-22 11:22:00,
2013-03-22 04:27:00,28.0,14.4,29.99,WSW,245,0.0,0.0,56,0.00,,SCT060,0.00,VWS V14.01,2013-03-22 11:27:00,
2013-03-22 04:32:00,27.9,14.2,29.99,WSW,245,0.0,0.0,56,0.00,,SCT060,0.00,VWS V14.01,2013-03-22 11:32:00,
2013-03-22 04:37:00,27.9,14.2,29.99,WSW,245,0.0,0.0,56,0.00,,SCT060,0.00,VWS V14.01,2013-03-22 11:37:00,
2013-03-22 04:42:00,27.9,14.2,29.99,WSW,251,0.0,4.0,56,0.00,,SCT060,0.00,VWS V14.01,2013-03-22 11:42:00,
2013-03-22 04:47:00,28.2,14.6,29.99,WSW,244,3.1,3.6,56,0.00,,SCT060,0.00,VWS V14.01,2013-03-22 11:47:00,
2013-03-22 04:52:00,28.4,14.7,29.99,WSW,242,4.0,4.0,56,0.00,,SCT060,0.00,VWS V14.01,2013-03-22 11:52:00,
2013-03-22 04:57:00,28.6,14.9,29.99,WSW,244,5.8,5.8,56,0.00,,SCT060,0.00,VWS V14.01,2013-03-22 11:57:00,
2013-03-22 05:02:00,28.6,14.5,29.99,SW,236,3.6,4.0,55,0.00,,BKN045,0.00,VWS V14.01,2013-03-22 12:02:00,
2013-03-22 05:07:00,28.6,14.5,29.99,SW,233,2.7,2.7,55,0.00,,BKN045,0.00,VWS V14.01,2013-03-22 12:07:00,
2013-03-22 05:12:00,28.2,14.1,29.99,WSW,245,5.8,5.8,55,0.00,,BKN045,0.00,VWS V14.01,2013-03-22 12:12:00,
2013-03-22 05:17:00,28.0,14.0,29.99,SW,229,3.1,4.9,55,0.00,,BKN045,0.00,VWS V14.01,2013-03-22 12:17:00,
2013-03-22 05:22:00,27.9,13.8,29.99,SW,232,4.0,4.0,55,0.00,,BKN045,0.00,VWS V14.01,2013-03-22 12:22:00,
2013-03-22 05:27:00,27.7,14.0,29.99,SW,230,2.7,3.6,56,0.00,,BKN045,0.00,VWS V14.01,2013-03-22 12:27:00,
2013-03-22 05:32:00,27.7,14.0,29.99,SW,231,3.6,4.5,56,0.00,,BKN045,0.00,VWS V14.01,2013-03-22 12:32:00,
2013-03-22 05:37:00,27.7,14.4,29.99,WSW,244,4.9,5.4,57,0.00,,BKN045,0.00,VWS V14.01,2013-03-22 12:37:00,
2013-03-22 05:42:00,27.9,14.6,29.99,WSW,246,2.7,4.5,57,0.00,,BKN045,0.00,VWS V14.01,2013-03-22 12:42:00,
2013-03-22 05:47:00,27.9,14.6,29.99,WSW,257,3.6,3.6,57,0.00,,BKN045,0.00,VWS V14.01,2013-03-22 12:47:00,
2013-03-22 05:52:00,28.2,15.0,29.99,WSW,257,3.6,4.0,57,0.00,,BKN045,0.00,VWS V14.01,2013-03-22 12:52:00,
2013-03-22 05:57:00,28.2,14.6,29.99,WSW,256,3.6,3.6,56,0.00,,BKN045,0.00,VWS V14.01,2013-03-22 12:57:00,
2013-03-22 06:02:00,28.2,14.6,29.99,WSW,256,0.0,0.0,56,0.00,,BKN070,0.00,VWS V14.01,2013-03-22 13:02:00,
2013-03-22 06:07:00,27.9,14.2,30.02,WSW,256,0.0,0.0,56,0.00,,BKN070,0.00,VWS V14.01,2013-03-22 13:07:00,
2013-03-22 06:12:00,27.7,14.0,30.02,WSW,256,0.0,0.0,56,0.00,,BKN070,0.00,VWS V14.01,2013-03-22 13:12:00,
2013-03-22 06:17:00,27.5,13.9,30.02,WSW,256,0.0,0.0,56,0.00,,BKN070,0.00,VWS V14.01,2013-03-22 13:17:00,
2013-03-22 06:22:00,27.1,13.5,30.02,WSW,256,0.0,0.0,56,0.00,,BKN070,0.00,VWS V14.01,2013-03-22 13:22:00,
2013-03-22 06:27:00,27.0,13.4,30.02,WSW,256,0.0,0.0,56,0.00,,BKN070,0.00,VWS V14.01,2013-03-22 13:27:00,
2013-03-22 06:32:00,26.6,13.0,30.02,WSW,256,3.1,3.1,56,0.00,,BKN070,0.00,VWS V14.01,2013-03-22 13:32:00,
2013-03-22 06:37:00,26.4,13.3,30.02,West,268,5.8,5.8,57,0.00,,BKN070,0.00,VWS V14.01,2013-03-22 13:37:00,
2013-03-22 06:42:00,26.4,13.7,30.02,West,267,3.6,5.4,58,0.00,,BKN070,0.00,VWS V14.01,2013-03-22 13:42:00,
2013-03-22 06:47:00,26.4,14.1,30.02,WSW,254,4.9,4.9,59,0.00,,BKN070,0.00,VWS V14.01,2013-03-22 13:47:00,
2013-03-22 06:52:00,26.4,14.4,30.02,WSW,253,3.1,4.0,60,0.00,,BKN070,0.00,VWS V14.01,2013-03-22 13:52:00,
2013-03-22 06:57:00,26.4,14.4,30.02,WSW,245,6.3,6.3,60,0.00,,BKN070,0.00,VWS V14.01,2013-03-22 13:57:00,
2013-03-22 07:02:00,26.4,14.4,30.02,WSW,248,0.0,2.2,60,0.00,,BKN070,0.00,VWS V14.01,2013-03-22 14:02:00,
2013-03-22 07:07:00,26.2,14.3,30.02,WSW,257,3.1,4.0,60,0.00,,BKN070,0.00,VWS V14.01,2013-03-22 14:07:00,
2013-03-22 07:12:00,26.4,14.4,30.02,WSW,258,3.6,3.6,60,0.00,,BKN070,0.00,VWS V14.01,2013-03-22 14:12:00,
2013-03-22 07:17:00,26.4,14.4,30.02,West,259,2.7,2.7,60,0.00,,BKN070,0.00,VWS V14.01,2013-03-22 14:17:00,
2013-03-22 07:22:00,26.6,14.6,30.02,WSW,257,2.7,2.7,60,0.00,,BKN070,0.00,VWS V14.01,2013-03-22 14:22:00,
2013-03-22 07:27:00,27.0,14.9,30.02,WSW,255,0.0,0.0,60,0.00,,BKN070,0.00,VWS V14.01,2013-03-22 14:27:00,
2013-03-22 07:32:00,27.0,14.9,30.02,WSW,255,0.0,0.0,60,0.00,,,0.00,VWS V14.01,2013-03-22 14:32:00,
2013-03-22 07:37:00,27.1,15.1,30.05,WSW,257,0.0,0.0,60,0.00,,,0.00,VWS V14.01,2013-03-22 14:37:00,
2013-03-22 07:42:00,27.3,15.3,30.05,West,261,2.7,2.7,60,0.00,,,0.00,VWS V14.01,2013-03-22 14:42:00,
2013-03-22 07:47:00,27.3,15.3,30.05,West,265,2.7,4.0,60,0.00,,,0.00,VWS V14.01,2013-03-22 14:47:00,
2013-03-22 07:52:00,27.5,15.4,30.05,WSW,258,4.0,5.4,60,0.00,,,0.00,VWS V14.01,2013-03-22 14:52:00,
2013-03-22 07:57:00,27.7,15.6,30.05,WSW,250,3.6,3.6,60,0.00,,,0.00,VWS V14.01,2013-03-22 14:57:00,
2013-03-22 08:02:00,27.9,15.8,30.05,WSW,242,4.0,4.9,60,0.00,,BKN085,0.00,VWS V14.01,2013-03-22 15:02:00,
2013-03-22 08:07:00,28.4,16.7,30.05,WSW,244,5.8,5.8,61,0.00,,BKN085,0.00,VWS V14.01,2013-03-22 15:07:00,
2013-03-22 08:12:00,28.9,16.8,30.05,West,261,5.8,5.8,60,0.00,,BKN085,0.00,VWS V14.01,2013-03-22 15:12:00,
2013-03-22 08:17:00,29.5,16.9,30.05,West,261,3.6,3.6,59,0.00,,BKN085,0.00,VWS V14.01,2013-03-22 15:17:00,
2013-03-22 08:22:00,29.5,16.5,30.05,WSW,242,8.3,8.3,58,0.00,,BKN085,0.00,VWS V14.01,2013-03-22 15:22:00,
2013-03-22 08:27:00,29.8,16.5,30.05,WSW,248,5.4,5.4,57,0.00,,,0.00,VWS V14.01,2013-03-22 15:27:00,
2013-03-22 08:32:00,30.7,16.9,30.05,West,259,6.3,6.3,56,0.00,,,0.00,VWS V14.01,2013-03-22 15:32:00,
2013-03-22 08:37:00,31.3,17.4,30.05,WSW,243,4.9,4.9,56,0.00,,,0.00,VWS V14.01,2013-03-22 15:37:00,
2013-03-22 08:42:00,31.8,17.1,30.05,West,273,5.8,5.8,54,0.00,,,0.00,VWS V14.01,2013-03-22 15:42:00,
2013-03-22 08:47:00,32.2,16.5,30.05,West,270,6.3,6.3,52,0.00,,,0.00,VWS V14.01,2013-03-22 15:47:00,
2013-03-22 08:52:00,32.5,16.9,30.05,West,272,6.3,6.3,52,0.00,,,0.00,VWS V14.01,2013-03-22 15:52:00,
2013-03-22 08:57:00,32.5,16.4,30.05,West,267,2.7,3.6,51,0.00,,,0.00,VWS V14.01,2013-03-22 15:57:00,
2013-03-22 09:02:00,32.5,16.4,30.05,West,260,4.0,4.0,51,0.00,,,0.00,VWS V14.01,2013-03-22 16:02:00,
2013-03-22 09:07:00,33.4,17.7,30.05,WSW,257,2.2,2.2,52,0.00,,,0.00,VWS V14.01,2013-03-22 16:07:00,
2013-03-22 09:12:00,34.3,18.1,30.05,West,266,3.1,6.3,51,0.00,,,0.00,VWS V14.01,2013-03-22 16:12:00,
2013-03-22 09:17:00,35.1,17.8,30.05,West,261,5.4,5.4,49,0.00,,,0.00,VWS V14.01,2013-03-22 16:17:00,
2013-03-22 09:22:00,35.8,17.5,30.05,WSW,245,0.0,3.6,47,0.00,,,0.00,VWS V14.01,2013-03-22 16:22:00,
2013-03-22 09:27:00,36.3,17.0,30.05,SW,227,3.1,3.1,45,0.00,,,0.00,VWS V14.01,2013-03-22 16:27:00,
2013-03-22 09:32:00,36.7,17.4,30.05,SW,226,2.7,3.6,45,0.00,,,0.00,VWS V14.01,2013-03-22 16:32:00,
2013-03-22 09:37:00,37.4,17.0,30.05,West,263,4.9,6.3,43,0.00,,,0.00,VWS V14.01,2013-03-22 16:37:00,
2013-03-22 09:42:00,37.6,16.6,30.05,WSW,252,0.0,3.6,42,0.00,,,0.00,VWS V14.01,2013-03-22 16:42:00,
2013-03-22 09:47:00,36.7,15.2,30.05,West,260,0.0,2.2,41,0.00,,,0.00,VWS V14.01,2013-03-22 16:47:00,
2013-03-22 09:52:00,36.1,15.3,30.05,WSW,244,4.9,4.9,42,0.00,,BKN050,0.00,VWS V14.01,2013-03-22 16:52:00,
2013-03-22 09:57:00,36.9,15.9,30.05,SW,225,0.0,0.0,42,0.00,,BKN050,0.00,VWS V14.01,2013-03-22 16:57:00,
2013-03-22 10:03:00,36.9,14.8,30.05,WSW,241,3.6,3.6,40,0.00,,BKN050,0.00,VWS V14.01,2013-03-22 17:03:00,
2013-03-22 10:08:00,35.6,14.2,30.08,WSW,252,5.4,5.4,41,0.00,,BKN050,0.00,VWS V14.01,2013-03-22 17:08:00,
2013-03-22 10:13:00,35.2,13.9,30.08,WNW,287,3.1,3.1,41,0.00,,BKN050,0.00,VWS V14.01,2013-03-22 17:13:00,
2013-03-22 10:17:00,35.1,13.8,30.08,West,280,2.7,2.7,41,0.00,,BKN050,0.00,VWS V14.01,2013-03-22 17:17:00,
2013-03-22 10:22:00,35.6,14.8,30.08,West,271,2.7,3.1,42,0.00,,BKN050,0.00,VWS V14.01,2013-03-22 17:22:00,
2013-03-22 10:27:00,37.0,16.1,30.08,WSW,251,2.7,5.4,42,0.00,,BKN050,0.00,VWS V14.01,2013-03-22 17:27:00,
2013-03-22 10:32:00,37.9,16.4,30.08,WSW,254,3.6,3.6,41,0.00,,BKN050,0.00,VWS V14.01,2013-03-22 17:32:00,
2013-03-22 10:37:00,39.0,16.8,30.08,West,271,3.6,4.9,40,0.00,,BKN050,0.00,VWS V14.01,2013-03-22 17:37:00,
2013-03-22 10:42:00,39.6,17.2,30.08,WNW,295,2.7,2.7,40,0.00,,BKN050,0.00,VWS V14.01,2013-03-22 17:42:00,
2013-03-22 10:47:00,40.6,18.2,30.08,SSW,197,4.9,5.8,40,0.00,,BKN050,0.00,VWS V14.01,2013-03-22 17:47:00,
2013-03-22 10:52:00,41.7,18.6,30.08,SW,223,4.9,5.8,39,0.00,,BKN050,0.00,VWS V14.01,2013-03-22 17:52:00,
2013-03-22 10:57:00,42.1,18.9,30.08,WSW,255,4.9,5.4,39,0.00,,BKN050,0.00,VWS V14.01,2013-03-22 17:57:00,
2013-03-22 11:02:00,43.2,19.3,30.08,SW,215,4.0,4.0,38,0.00,,SCT015,0.00,VWS V14.01,2013-03-22 18:02:00,
2013-03-22 11:07:00,43.5,16.3,30.08,NW,304,3.1,4.0,33,0.00,,SCT015,0.00,VWS V14.01,2013-03-22 18:07:00,
2013-03-22 11:12:00,42.8,17.1,30.08,West,260,4.9,5.8,35,0.00,,SCT015,0.00,VWS V14.01,2013-03-22 18:12:00,
2013-03-22 11:17:00,43.0,17.2,30.08,WSW,256,3.1,5.4,35,0.00,,SCT015,0.00,VWS V14.01,2013-03-22 18:17:00,
2013-03-22 11:22:00,43.0,15.9,30.08,SSW,204,3.6,5.4,33,0.00,,SCT015,0.00,VWS V14.01,2013-03-22 18:22:00,
2013-03-22 11:27:00,42.1,15.1,30.08,WNW,297,3.6,3.6,33,0.00,,SCT015,0.00,VWS V14.01,2013-03-22 18:27:00,
2013-03-22 11:32:00,39.9,13.2,30.08,West,265,3.6,5.4,33,0.00,,SCT015,0.00,VWS V14.01,2013-03-22 18:32:00,
2013-03-22 11:37:00,39.0,13.0,30.08,West,267,2.2,2.7,34,0.00,,SCT015,0.00,VWS V14.01,2013-03-22 18:37:00,
2013-03-22 11:42:00,38.5,12.6,30.08,West,267,0.0,0.0,34,0.00,,SCT015,0.00,VWS V14.01,2013-03-22 18:42:00,
2013-03-22 11:47:00,37.8,12.6,30.08,West,267,2.7,2.7,35,0.00,,SCT015,0.00,VWS V14.01,2013-03-22 18:47:00,
2013-03-22 11:52:00,37.6,13.1,30.08,West,264,2.7,3.1,36,0.00,,SCT015,0.00,VWS V14.01,2013-03-22 18:52:00,
2013-03-22 11:57:00,37.8,13.2,30.08,SW,235,2.7,2.7,36,0.00,,SCT015,0.00,VWS V14.01,2013-03-22 18:57:00,
2013-03-22 12:02:00,38.5,13.9,30.08,SW,216,4.0,4.0,36,0.00,,SHRA,0.00,VWS V14.01,2013-03-22 19:02:00,
2013-03-22 12:07:00,39.2,15.1,30.08,SW,215,9.6,9.6,37,0.00,,SHRA,0.00,VWS V14.01,2013-03-22 19:07:00,
2013-03-22 12:12:00,39.4,15.3,30.08,SSW,202,4.9,6.7,37,0.00,,SHRA,0.00,VWS V14.01,2013-03-22 19:12:00,
2013-03-22 12:17:00,40.8,17.8,30.08,SW,216,5.4,6.3,39,0.00,,SHRA,0.00,VWS V14.01,2013-03-22 19:17:00,
2013-03-22 12:22:00,41.9,16.9,30.08,WSW,258,8.1,8.1,36,0.00,,SHRA,0.00,VWS V14.01,2013-03-22 19:22:00,
2013-03-22 12:27:00,42.1,15.8,30.08,SW,215,3.1,4.9,34,0.00,,SHRA,0.00,VWS V14.01,2013-03-22 19:27:00,
2013-03-22 12:32:00,42.4,18.0,30.08,WSW,251,6.3,8.7,37,0.00,,SHRA,0.00,VWS V14.01,2013-03-22 19:32:00,
2013-03-22 12:37:00,43.7,17.2,30.08,WSW,241,8.7,10.1,34,0.00,,SHRA,0.00,VWS V14.01,2013-03-22 19:37:00,
2013-03-22 12:42:00,44.8,18.8,30.08,SW,228,9.6,9.6,35,0.00,,SHRA,0.00,VWS V14.01,2013-03-22 19:42:00,
2013-03-22 12:47:00,45.1,17.1,30.08,SSW,198,8.1,8.3,32,0.00,,SHRA,0.00,VWS V14.01,2013-03-22 19:47:00,
2013-03-22 12:52:00,45.5,17.4,30.08,West,274,4.0,5.8,32,0.00,,SHRA,0.00,VWS V14.01,2013-03-22 19:52:00,
2013-03-22 12:57:00,45.5,17.4,30.08,SSW,203,9.2,9.2,32,0.00,,SHRA,0.00,VWS V14.01,2013-03-22 19:57:00,
2013-03-22 13:02:00,45.5,16.6,30.08,WSW,254,4.0,8.7,31,0.00,,BKN050,0.00,VWS V14.01,2013-03-22 20:02:00,
2013-03-22 13:07:00,45.1,15.6,30.08,WSW,256,2.2,5.8,30,0.00,,BKN050,0.00,VWS V14.01,2013-03-22 20:07:00,
2013-03-22 13:12:00,44.6,15.9,30.08,SSW,203,3.6,5.4,31,0.00,,BKN050,0.00,VWS V14.01,2013-03-22 20:12:00,
2013-03-22 13:17:00,45.1,15.6,30.08,West,259,7.6,10.1,30,0.00,,BKN050,0.00,VWS V14.01,2013-03-22 20:17:00,
2013-03-22 13:22:00,45.5,15.9,30.08,South,189,2.2,4.0,30,0.00,,BKN050,0.00,VWS V14.01,2013-03-22 20:22:00,
2013-03-22 13:27:00,45.5,15.9,30.08,West,271,0.0,6.3,30,0.00,,BKN050,0.00,VWS V14.01,2013-03-22 20:27:00,
2013-03-22 13:32:00,45.3,15.7,30.08,SW,226,8.3,10.5,30,0.00,,BKN050,0.00,VWS V14.01,2013-03-22 20:32:00,
2013-03-22 13:37:00,45.1,14.8,30.08,West,263,8.7,8.7,29,0.00,,BKN050,0.00,VWS V14.01,2013-03-22 20:37:00,
2013-03-22 13:42:00,43.3,13.2,30.08,WSW,245,6.3,8.1,29,0.00,,BKN050,0.00,VWS V14.01,2013-03-22 20:42:00,
2013-03-22 13:47:00,41.5,12.4,30.08,WSW,252,3.1,4.0,30,0.00,,BKN050,0.00,VWS V14.01,2013-03-22 20:47:00,
2013-03-22 13:52:00,41.0,12.0,30.05,SSE,168,0.0,3.1,30,0.00,,BKN050,0.00,VWS V14.01,2013-03-22 20:52:00,
2013-03-22 13:57:00,40.8,11.8,30.05,North,10,4.0,4.0,30,0.00,,BKN050,0.00,VWS V14.01,2013-03-22 20:57:00,
2013-03-22 14:02:00,41.0,11.2,30.05,West,267,3.1,3.1,29,0.00,,SHRA,0.00,VWS V14.01,2013-03-22 21:02:00,
2013-03-22 14:07:00,41.0,11.2,30.05,SW,214,0.0,0.0,29,0.00,,SHRA,0.00,VWS V14.01,2013-03-22 21:07:00,
2013-03-22 14:12:00,40.8,11.0,30.05,NNW,337,2.2,4.0,29,0.00,,SHRA,0.00,VWS V14.01,2013-03-22 21:12:00,
2013-03-22 14:17:00,41.2,11.4,30.05,NNW,333,8.1,8.3,29,0.00,,SHRA,0.00,VWS V14.01,2013-03-22 21:17:00,
2013-03-22 14:22:00,41.5,11.7,30.05,WSW,254,8.1,8.1,29,0.00,,SHRA,0.00,VWS V14.01,2013-03-22 21:22:00,
2013-03-22 14:27:00,42.1,12.1,30.05,North,11,3.6,4.0,29,0.00,,SHRA,0.00,VWS V14.01,2013-03-22 21:27:00,
2013-03-22 14:32:00,42.1,12.1,30.05,NNW,330,2.7,5.8,29,0.00,,SHRA,0.00,VWS V14.01,2013-03-22 21:32:00,
2013-03-22 14:37:00,42.3,12.3,30.05,WNW,295,6.3,6.3,29,0.00,,SHRA,0.00,VWS V14.01,2013-03-22 21:37:00,
2013-03-22 14:42:00,42.1,11.3,30.05,NW,321,3.6,6.3,28,0.00,,SHRA,0.00,VWS V14.01,2013-03-22 21:42:00,
2013-03-22 14:47:00,41.7,11.8,30.05,West,259,4.9,4.9,29,0.00,,SHRA,0.00,VWS V14.01,2013-03-22 21:47:00,
2013-03-22 14:52:00,42.1,12.1,30.05,West,262,6.3,11.0,29,0.00,,SHRA,0.00,VWS V14.01,2013-03-22 21:52:00,
2013-03-22 14:58:00,41.9,11.2,30.05,NW,325,5.8,7.6,28,0.00,,SHRA,0.00,VWS V14.01,2013-03-22 21:58:00,
2013-03-22 15:03:00,42.1,12.1,30.05,SW,235,6.3,6.3,29,0.00,,BKN070,0.00,VWS V14.01,2013-03-22 22:03:00,
2013-03-22 15:08:00,42.3,11.5,30.05,SW,232,7.6,7.6,28,0.00,,BKN070,0.00,VWS V14.01,2013-03-22 22:08:00,
2013-03-22 15:13:00,42.3,11.5,30.05,West,270,7.6,8.3,28,0.00,,BKN070,0.00,VWS V14.01,2013-03-22 22:13:00,
2013-03-22 15:18:00,42.3,11.5,30.05,NNW,335,2.2,3.6,28,0.00,,BKN070,0.00,VWS V14.01,2013-03-22 22:18:00,
2013-03-22 15:23:00,42.1,11.3,30.05,NNW,338,3.6,10.5,28,0.00,,BKN070,0.00,VWS V14.01,2013-03-22 22:23:00,
2013-03-22 15:28:00,42.6,11.8,30.05,WNW,295,4.0,5.4,28,0.00,,BKN070,0.00,VWS V14.01,2013-03-22 22:28:00,
2013-03-22 15:33:00,42.6,11.8,30.05,West,263,4.0,6.3,28,0.00,,BKN070,0.00,VWS V14.01,2013-03-22 22:33:00,
2013-03-22 15:38:00,42.1,11.3,30.05,West,270,4.9,5.4,28,0.00,,BKN070,0.00,VWS V14.01,2013-03-22 22:38:00,
2013-03-22 15:43:00,42.1,11.3,30.05,West,273,5.4,8.3,28,0.00,,BKN070,0.00,VWS V14.01,2013-03-22 22:43:00,
2013-03-22 15:48:00,41.7,11.0,30.05,West,280,2.7,2.7,28,0.00,,BKN070,0.00,VWS V14.01,2013-03-22 22:48:00,
2013-03-22 15:53:00,41.7,11.0,30.05,West,264,4.0,4.0,28,0.00,,BKN070,0.00,VWS V14.01,2013-03-22 22:53:00,
2013-03-22 15:58:00,41.5,11.7,30.05,WSW,241,4.0,4.0,29,0.00,,BKN070,0.00,VWS V14.01,2013-03-22 22:58:00,
2013-03-22 16:03:00,40.6,10.9,30.05,NW,320,8.1,8.7,29,0.00,,BKN180,0.00,VWS V14.01,2013-03-22 23:03:00,
2013-03-22 16:08:00,39.7,10.1,30.08,WNW,301,3.1,8.1,29,0.00,,BKN180,0.00,VWS V14.01,2013-03-22 23:08:00,
2013-03-22 16:13:00,39.4,9.0,30.08,NNW,336,5.4,5.8,28,0.00,,BKN180,0.00,VWS V14.01,2013-03-22 23:13:00,
2013-03-22 16:18:00,38.8,9.3,30.08,NW,311,5.8,5.8,29,0.00,,BKN180,0.00,VWS V14.01,2013-03-22 23:18:00,
2013-03-22 16:23:00,38.7,9.2,30.08,West,265,10.1,11.0,29,0.00,,BKN180,0.00,VWS V14.01,2013-03-22 23:23:00,
2013-03-22 16:28:00,39.2,9.6,30.08,West,265,8.1,10.5,29,0.00,,BKN180,0.00,VWS V14.01,2013-03-22 23:28:00,
2013-03-22 16:33:00,39.7,10.1,30.08,WSW,254,8.7,10.5,29,0.00,,BKN180,0.00,VWS V14.01,2013-03-22 23:33:00,
2013-03-22 16:38:00,40.3,10.6,30.08,West,266,10.1,10.1,29,0.00,,BKN180,0.00,VWS V14.01,2013-03-22 23:38:00,
2013-03-22 16:43:00,40.6,11.6,30.08,WSW,254,6.3,8.1,30,0.00,,BKN180,0.00,VWS V14.01,2013-03-22 23:43:00,
2013-03-22 16:48:00,40.6,11.6,30.08,WSW,255,5.4,8.1,30,0.00,,BKN180,0.00,VWS V14.01,2013-03-22 23:48:00,
2013-03-22 16:53:00,40.8,11.8,30.08,West,268,4.0,8.1,30,0.00,,BKN180,0.00,VWS V14.01,2013-03-22 23:53:00,
2013-03-22 16:58:00,41.0,11.2,30.08,SW,229,4.9,6.3,29,0.00,,BKN180,0.00,VWS V14.01,2013-03-22 23:58:00,
2013-03-22 17:03:00,41.2,11.4,30.08,SSW,212,3.1,4.0,29,0.00,,SHRA,0.00,VWS V14.01,2013-03-23 00:03:00,
2013-03-22 17:08:00,41.2,11.4,30.08,SW,218,2.7,2.7,29,0.00,,SHRA,0.00,VWS V14.01,2013-03-23 00:08:00,
2013-03-22 17:13:00,41.2,11.4,30.08,SW,217,4.0,4.0,29,0.00,,SHRA,0.00,VWS V14.01,2013-03-23 00:13:00,
2013-03-22 17:18:00,41.2,11.4,30.08,SW,230,5.8,5.8,29,0.00,,SHRA,0.00,VWS V14.01,2013-03-23 00:18:00,
2013-03-22 17:23:00,41.0,11.2,30.08,SSW,207,4.9,4.9,29,0.00,,SHRA,0.00,VWS V14.01,2013-03-23 00:23:00,
2013-03-22 17:28:00,40.6,10.9,30.08,South,175,4.0,4.0,29,0.00,,SHRA,0.00,VWS V14.01,2013-03-23 00:28:00,
2013-03-22 17:33:00,40.1,11.2,30.08,South,177,4.0,4.0,30,0.00,,SHRA,0.00,VWS V14.01,2013-03-23 00:33:00,
2013-03-22 17:38:00,39.4,10.5,30.08,SSE,154,4.0,4.0,30,0.00,,SHRA,0.00,VWS V14.01,2013-03-23 00:38:00,
2013-03-22 17:43:00,38.8,10.8,30.08,SSE,153,3.6,4.9,31,0.00,,SHRA,0.00,VWS V14.01,2013-03-23 00:43:00,
2013-03-22 17:48:00,38.3,10.3,30.08,SSE,164,0.0,2.7,31,0.00,,SHRA,0.00,VWS V14.01,2013-03-23 00:48:00,
2013-03-22 17:53:00,37.9,10.0,30.08,South,180,3.6,3.6,31,0.00,,SHRA,0.00,VWS V14.01,2013-03-23 00:53:00,
2013-03-22 17:58:00,37.6,10.4,30.08,South,170,0.0,0.0,32,0.00,,SHRA,0.00,VWS V14.01,2013-03-23 00:58:00,
2013-03-22 18:03:00,37.4,10.2,30.08,South,169,0.0,0.0,32,0.00,,SHRA,0.00,VWS V14.01,2013-03-23 01:03:00,
2013-03-22 18:08:00,37.4,10.2,30.11,South,169,0.0,3.1,32,0.00,,SHRA,0.00,VWS V14.01,2013-03-23 01:08:00,
2013-03-22 18:13:00,37.6,10.4,30.11,SSE,152,2.2,3.6,32,0.00,,SHRA,0.00,VWS V14.01,2013-03-23 01:13:00,
2013-03-22 18:18:00,37.9,10.7,30.11,South,170,3.1,3.1,32,0.00,,SHRA,0.00,VWS V14.01,2013-03-23 01:18:00,
2013-03-22 18:23:00,38.3,10.3,30.11,SSW,212,3.1,3.1,31,0.00,,SHRA,0.00,VWS V14.01,2013-03-23 01:23:00,
2013-03-22 18:28:00,38.7,10.6,30.11,South,190,2.7,3.6,31,0.00,,SHRA,0.00,VWS V14.01,2013-03-23 01:28:00,
2013-03-22 18:33:00,39.0,11.0,30.11,SSE,155,0.0,0.0,31,0.00,,SHRA,0.00,VWS V14.01,2013-03-23 01:33:00,
2013-03-22 18:38:00,39.0,11.0,30.11,NNE,24,8.3,8.3,31,0.00,,SHRA,0.00,VWS V14.01,2013-03-23 01:38:00,
2013-03-22 18:43:00,38.7,10.6,30.11,NE,47,5.8,5.8,31,0.00,,SHRA,0.00,VWS V14.01,2013-03-23 01:43:00,
2013-03-22 18:48:00,38.3,10.3,30.11,North,2,5.4,5.8,31,0.00,,SHRA,0.00,VWS V14.01,2013-03-23 01:48:00,
2013-03-22 18:53:00,37.9,10.0,30.11,NE,45,6.3,6.3,31,0.00,,SHRA,0.00,VWS V14.01,2013-03-23 01:53:00,
2013-03-22 18:58:00,37.2,10.1,30.11,ENE,74,7.2,7.6,32,0.00,,SHRA,0.00,VWS V14.01,2013-03-23 01:58:00,
2013-03-22 19:03:00,36.7,9.6,30.11,ENE,67,3.1,4.0,32,0.00,,SHRA,0.00,VWS V14.01,2013-03-23 02:03:00,
2013-03-22 19:08:00,36.5,9.5,30.11,ENE,66,0.0,0.0,32,0.00,,SHRA,0.00,VWS V14.01,2013-03-23 02:08:00,
2013-03-22 19:13:00,36.1,9.1,30.11,ENE,66,0.0,0.0,32,0.00,,SHRA,0.00,VWS V14.01,2013-03-23 02:13:00,
2013-03-22 19:18:00,35.8,9.5,30.11,ENE,66,4.0,4.0,33,0.00,,SHRA,0.00,VWS V14.01,2013-03-23 02:18:00,
2013-03-22 19:23:00,35.4,9.9,30.11,WSW,254,3.6,3.6,34,0.00,,SHRA,0.00,VWS V14.01,2013-03-23 02:23:00,
2013-03-22 19:28:00,35.4,9.9,30.11,WSW,254,3.1,3.1,34,0.00,,SHRA,0.00,VWS V14.01,2013-03-23 02:28:00,
2013-03-22 19:33:00,35.2,9.7,30.11,SW,222,2.7,2.7,34,0.00,,SHRA,0.00,VWS V14.01,2013-03-23 02:33:00,
2013-03-22 19:38:00,35.2,9.7,30.11,SW,223,2.7,2.7,34,0.00,,SHRA,0.00,VWS V14.01,2013-03-23 02:38:00,
2013-03-22 19:42:00,35.1,9.5,30.11,SW,222,3.1,3.1,34,0.00,,SHRA,0.00,VWS V14.01,2013-03-23 02:42:00,
2013-03-22 19:47:00,35.1,9.5,30.11,West,259,2.2,2.7,34,0.00,,SHRA,0.00,VWS V14.01,2013-03-23 02:47:00,
2013-03-22 19:52:00,34.9,9.4,30.11,West,263,2.7,2.7,34,0.00,,SHRA,0.00,VWS V14.01,2013-03-23 02:52:00,
2013-03-22 19:57:00,34.7,9.9,30.11,WSW,238,3.6,3.6,35,0.00,,SHRA,0.00,VWS V14.01,2013-03-23 02:57:00,
2013-03-22 20:02:00,34.5,9.7,30.11,WSW,244,2.2,2.2,35,0.00,,BKN180,0.00,VWS V14.01,2013-03-23 03:02:00,
2013-03-22 20:07:00,34.2,9.4,30.14,WSW,245,2.7,2.7,35,0.00,,BKN180,0.00,VWS V14.01,2013-03-23 03:07:00,
2013-03-22 20:12:00,33.8,9.1,30.14,WSW,245,0.0,0.0,35,0.00,,BKN180,0.00,VWS V14.01,2013-03-23 03:12:00,
2013-03-22 20:17:00,33.1,9.1,30.14,WSW,245,2.7,2.7,36,0.00,,BKN180,0.00,VWS V14.01,2013-03-23 03:17:00,
2013-03-22 20:22:00,32.9,9.5,30.14,WSW,251,2.7,2.7,37,0.00,,BKN180,0.00,VWS V14.01,2013-03-23 03:22:00,
2013-03-22 20:27:00,32.5,9.2,30.14,WSW,251,2.7,2.7,37,0.00,,BKN180,0.00,VWS V14.01,2013-03-23 03:27:00,
2013-03-22 20:32:00,32.4,10.2,30.14,WSW,251,0.0,0.0,39,0.00,,BKN180,0.00,VWS V14.01,2013-03-23 03:32:00,
2013-03-22 20:37:00,31.8,10.3,30.14,West,270,4.0,4.0,40,0.00,,BKN180,0.00,VWS V14.01,2013-03-23 03:37:00,
2013-03-22 20:42:00,32.0,10.4,30.14,WSW,247,4.0,6.3,40,0.00,,BKN180,0.00,VWS V14.01,2013-03-23 03:42:00,
2013-03-22 20:47:00,32.4,11.3,30.14,West,262,5.4,5.4,41,0.00,,BKN180,0.00,VWS V14.01,2013-03-23 03:47:00,
2013-03-22 20:52:00,32.5,11.5,30.14,WSW,246,5.4,5.4,41,0.00,,BKN180,0.00,VWS V14.01,2013-03-23 03:52:00,
2013-03-22 20:57:00,32.5,11.5,30.14,WSW,243,5.8,5.8,41,0.00,,BKN180,0.00,VWS V14.01,2013-03-23 03:57:00,
2013-03-22 21:00:00,32.5,11.5,30.14,WSW,249,3.6,3.6,41,0.00,,BKN180,0.00,VWS V14.01,2013-03-23 04:00:00,
2013-03-22 21:05:00,32.2,11.1,30.14,WSW,239,3.1,3.6,41,0.00,,BKN180,0.00,VWS V14.01,2013-03-23 04:05:00,
2013-03-22 21:10:00,31.8,10.8,30.14,SW,230,2.2,2.7,41,0.00,,BKN180,0.00,VWS V14.01,2013-03-23 04:10:00,
2013-03-22 21:15:00,31.3,10.3,30.14,SW,226,0.0,0.0,41,0.00,,BKN180,0.00,VWS V14.01,2013-03-23 04:15:00,
2013-03-22 21:20:00,30.7,9.8,30.14,WSW,242,0.0,0.0,41,0.00,,BKN180,0.00,VWS V14.01,2013-03-23 04:20:00,
2013-03-22 21:25:00,30.2,9.9,30.14,WSW,242,0.0,0.0,42,0.00,,BKN180,0.00,VWS V14.01,2013-03-23 04:25:00,
2013-03-22 21:30:00,29.7,9.4,30.14,WSW,242,0.0,0.0,42,0.00,,BKN180,0.00,VWS V14.01,2013-03-23 04:30:00,
2013-03-22 21:35:00,29.1,8.9,30.14,WSW,242,0.0,0.0,42,0.00,,BKN180,0.00,VWS V14.01,2013-03-23 04:35:00,
2013-03-22 21:40:00,28.9,9.3,30.14,WSW,242,2.7,2.7,43,0.00,,BKN180,0.00,VWS V14.01,2013-03-23 04:40:00,
2013-03-22 21:45:00,28.8,9.1,30.14,WSW,242,2.2,2.2,43,0.00,,BKN180,0.00,VWS V14.01,2013-03-23 04:45:00,
2013-03-22 21:50:00,28.6,9.4,30.14,WSW,242,3.1,3.1,44,0.00,,BKN180,0.00,VWS V14.01,2013-03-23 04:50:00,
2013-03-22 21:55:00,28.6,9.4,30.16,WSW,242,2.7,2.7,44,0.00,,BKN180,0.00,VWS V14.01,2013-03-23 04:55:00,
2013-03-22 22:00:00,28.4,9.8,30.16,WSW,255,2.7,3.1,45,0.00,,SCT180,0.00,VWS V14.01,2013-03-23 05:00:00,
2013-03-22 22:05:00,27.9,8.8,30.16,WSW,255,2.7,3.1,44,0.00,,SCT180,0.00,VWS V14.01,2013-03-23 05:05:00,
2013-03-22 22:10:00,27.5,8.5,30.16,WSW,255,2.7,2.7,44,0.00,,SCT180,0.00,VWS V14.01,2013-03-23 05:10:00,
2013-03-22 22:15:00,27.1,8.6,30.16,WSW,255,2.2,2.2,45,0.00,,SCT180,0.00,VWS V14.01,2013-03-23 05:15:00,
2013-03-22 22:20:00,27.0,8.5,30.16,WSW,255,0.0,0.0,45,0.00,,SCT180,0.00,VWS V14.01,2013-03-23 05:20:00,
2013-03-22 22:25:00,26.8,8.3,30.16,WSW,255,0.0,0.0,45,0.00,,SCT180,0.00,VWS V14.01,2013-03-23 05:25:00,
2013-03-22 22:30:00,26.6,8.6,30.16,WSW,255,0.0,0.0,46,0.00,,SCT180,0.00,VWS V14.01,2013-03-23 05:30:00,
2013-03-22 22:35:00,26.4,8.9,30.16,WSW,255,0.0,0.0,47,0.00,,SCT180,0.00,VWS V14.01,2013-03-23 05:35:00,
2013-03-22 22:40:00,26.4,9.4,30.16,WSW,255,0.0,0.0,48,0.00,,SCT180,0.00,VWS V14.01,2013-03-23 05:40:00,
2013-03-22 22:45:00,26.6,10.0,30.16,WSW,255,0.0,0.0,49,0.00,,SCT180,0.00,VWS V14.01,2013-03-23 05:45:00,
2013-03-22 22:50:00,26.4,9.9,30.16,WSW,255,0.0,0.0,49,0.00,,SCT180,0.00,VWS V14.01,2013-03-23 05:50:00,
2013-03-22 22:55:00,26.4,10.3,30.16,WSW,254,0.0,0.0,50,0.00,,SCT180,0.00,VWS V14.01,2013-03-23 05:55:00,
2013-03-22 23:00:00,26.6,10.9,30.16,WSW,254,0.0,0.0,51,0.00,,CLR,0.00,VWS V14.01,2013-03-23 06:00:00,
2013-03-22 23:05:00,26.4,10.8,30.16,WSW,255,0.0,0.0,51,0.00,,CLR,0.00,VWS V14.01,2013-03-23 06:05:00,
2013-03-22 23:10:00,26.2,10.6,30.16,WSW,255,0.0,0.0,51,0.00,,CLR,0.00,VWS V14.01,2013-03-23 06:10:00,
2013-03-22 23:15:00,26.2,11.0,30.16,WSW,255,0.0,0.0,52,0.00,,CLR,0.00,VWS V14.01,2013-03-23 06:15:00,
2013-03-22 23:20:00,26.8,11.5,30.16,WSW,255,0.0,0.0,52,0.00,,CLR,0.00,VWS V14.01,2013-03-23 06:20:00,
2013-03-22 23:25:00,27.0,12.1,30.16,WSW,254,0.0,0.0,53,0.00,,CLR,0.00,VWS V14.01,2013-03-23 06:25:00,
2013-03-22 23:30:00,27.0,12.1,30.16,WSW,255,0.0,0.0,53,0.00,,CLR,0.00,VWS V14.01,2013-03-23 06:30:00,
2013-03-22 23:35:00,26.2,11.0,30.16,WSW,255,0.0,0.0,52,0.00,,CLR,0.00,VWS V14.01,2013-03-23 06:35:00,
2013-03-22 23:40:00,25.5,10.4,30.16,WSW,254,0.0,0.0,52,0.00,,CLR,0.00,VWS V14.01,2013-03-23 06:40:00,
2013-03-22 23:45:00,25.2,10.0,30.16,WSW,255,0.0,0.0,52,0.00,,CLR,0.00,VWS V14.01,2013-03-23 06:45:00,
2013-03-22 23:50:00,25.5,10.8,30.16,WSW,255,0.0,0.0,53,0.00,,CLR,0.00,VWS V14.01,2013-03-23 06:50:00,
2013-03-22 23:55:00,25.9,11.5,30.19,WSW,255,0.0,0.0,54,0.00,,CLR,0.00,VWS V14.01,2013-03-23 06:55:00,